Home   Weather   41°17'N, 81°25'W   Past weeks
Flag for USA

Past Weather in 41°17'N, 81°25'W, USA — Yesterday and Last 2 Weeks

Now
77 °F

Broken clouds.


Feels Like: 79 °F
Forecast: 78 / 65 °F
Wind: 3 mph from North

Location: Akron Fulton International Airport

Current Time: May 26, 2019 at 1:28:39 pm

Latest Report: May 26, 2019 at 12:54 pm


Visibility: 10 mi

Pressure: 30.01 "Hg

Humidity: 74%

Dew Point: 68 °F

Location of 41°17'N, 81°25'WLocation

Past Weather in 41°17'N, 81°25'W — Graph

°F

41°17'N, 81°25'W Temperature Yesterday

Maximum temperature yesterday: 88 °F (at 3:54 pm)
Minimum temperature yesterday: 62 °F (at 12:54 am)
Average temperature yesterday: 74 °F

High & Low Weather Summary for the Past Weeks

 TemperatureHumidityPressure
High88 °F (May 25, 3:54 pm)93% (May 13, 12:38 am)30.21 "Hg (May 13, 12:38 am)
Low44 °F (May 14, 1:54 am)31% (May 15, 4:54 pm)29.67 "Hg (May 13, 3:54 am)
Average62 °F68%29.92 "Hg
* Reported May 11 12:54 pm — May 26 12:19 pm, 41°17'N, 81°25'W. Weather by CustomWeather, © 2019

Note: Actual official high and low records may vary slightly from our data, if they occured in-between our weather recording intervals... More about our weather records

Advertising

41°17'N, 81°25'W Weather History for the Previous 24 Hours

Scroll right to see more
 ConditionsComfort  
Time TempWeatherWind HumidityBarometerVisibility
12:19 pm
Sun, May 26
75 °FMore clouds than sun.7 mph74%30.05 "Hg10 mi
11:54 am74 °FPartly sunny.7 mph79%30.03 "Hg10 mi
10:54 am73 °FPassing clouds.3 mph79%30.03 "Hg10 mi
10:02 am69 °FMild.N/A81%30.05 "HgN/A
9:54 am69 °FThundershowers. More clouds than sun.7 mph81%30.03 "Hg10 mi
9:31 am69 °FThunderstorms. Fog.16 mph87%30.08 "Hg3 mi
9:19 am70 °FStrong thunderstorms. Broken clouds.25 mph84%30.08 "Hg2 mi
8:54 am72 °FScattered clouds.6 mph81%30.03 "Hg10 mi
7:54 am71 °FScattered clouds.8 mph81%30.01 "Hg10 mi
6:54 am69 °FPassing clouds.9 mph84%29.99 "Hg10 mi
5:54 am68 °FClear.7 mph87%29.97 "Hg10 mi
4:54 am67 °FPassing clouds.7 mph87%29.96 "Hg10 mi
3:54 am67 °FClear.6 mph87%29.97 "Hg10 mi
2:54 am67 °FClear.6 mph87%29.98 "Hg10 mi
1:54 am66 °FClear.6 mph87%29.98 "Hg10 mi
12:54 am67 °FClear.7 mph85%29.98 "Hg10 mi
11:54 pm
Sat, May 25
68 °FClear.7 mph82%29.99 "Hg10 mi
10:54 pm70 °FClear.7 mph79%29.99 "Hg10 mi
9:54 pm69 °FClear.5 mph81%29.98 "Hg10 mi
8:54 pm72 °FClear.8 mph76%29.97 "Hg10 mi
7:54 pm74 °FSunny.9 mph74%29.96 "Hg10 mi
6:54 pm75 °FScattered clouds.9 mph69%29.95 "Hg10 mi
6:14 pm71 °FThundershowers. Fog.20 mph87%30.01 "Hg6 mi
6:08 pm74 °FLight rain. Mostly cloudy.26 mph76%29.99 "Hg3 mi
5:06 pm79 °FPassing clouds.9 mph72%29.95 "Hg10 mi
3:54 pm88 °FPassing clouds.17 mph50%29.92 "Hg10 mi
2:54 pm85 °FBroken clouds.10 mph57%29.94 "Hg10 mi
1:54 pm86 °FSunny.16 mph53%29.95 "Hg10 mi
Weather by CustomWeather, © 2019

See weather overview